Location: Berduj
(43.0019°N, 22.3781°E)
Time: 00:32:08
(UTC+00:00)

Cosmos 2082 Rocket - Pass Details

Date: 19 October 2019
Orbit: 832 x 854 km, 71.0° (Epoch: 21 November)

Event Time Altitude Azimuth Distance (km) Brightness Sun altitude
Rises 18:28:40 0° 327° (NNW) 3,429 6.0 -31.0°
Reaches altitude 10° 18:31:18 10° 319° (NW) 2,487 5.3 -31.4°
Maximum altitude 18:36:27 36° 255° (WSW) 1,327 3.5 -32.3°
Enters shadow 18:38:00 30° 223° (SW) 1,470 3.6 -32.6°
